User: anonymous
Location: Caltech
(34.1382°N, 118.1253°W)
Time: 11:23:24
(UTC-07:00)
Language:

AO-Echo - Orbit

View from above orbital plane
View from above orbital plane
View from above satellite
View from above satellite

Ground track
Ground track

The orbit data is extracted from the following two-line orbital elements,

1 28375U 04025K   14265.39026766  .00000278  00000-0  95093-4 0  9473
2 28375 098.2596 209.0303 0084027 059.2357 301.7073 14.41430477537916
Epoch (UTC): 22 September 2014 09:21:59
Eccentricity: 0.0084027
inclination: 98.2596°
perigee height: 694 km
apogee height: 814 km
right ascension of ascending node: 209.0303°
argument of perigee: 59.2357°
revolutions per day: 14.41430477
mean anomaly at epoch: 301.7073°
orbit number at epoch: 53791

The dashed part of the orbit path shows where the satellite is in the earth's shadow,  

DLR